Torna al catalogo

CZ-6A DEB

AttivoPO
NORAD 61157·DEBRIS·🇨🇳 China

Lanciato Aug 6, 2024 da Taiyuan Satellite Launch Center

Loading…

Prossimi Passaggi (prossime 24 ore)

TLE

AggiornatoSource: Space-Track

Epoca: Sep 14, 2026, 09:23 UTC

1 61157U 24140RB  26257.39165623  .00001013  00000-0  35707-3 0  9998
2 61157  88.8470 249.3182 0095209 124.5018 236.5215 14.31508769107716

Traccia CZ-6A DEB in tempo reale con AllMySat

Download on the App Store